Location: Newark
(47.8285°N, 0.6972°W)
Time: 16:47:06
(UTC+00:00)

XW-2D - Visible Passes

Search period start: 10 December 2019 00:00
Search period end: 20 December 2019 00:00
Orbit: 509 x 527 km, 97.5° (Epoch: 10 December)

Date Brightness Start Highest point End Pass type
(mag) Time Alt. Az. Time Alt. Az. Time Alt. Az.
10 Dec ? 05:45:48 10° NNE 05:49:32 47° E 05:53:13 10° S visible
10 Dec ? 18:04:27 10° SW 18:07:14 19° W 18:10:03 10° NW visible
11 Dec ? 05:31:46 10° NNE 05:35:16 32° E 05:38:44 10° SSE visible
11 Dec ? 07:06:10 10° NNW 07:09:13 23° WNW 07:12:16 10° WSW visible
11 Dec ? 17:49:40 10° SSW 17:52:56 27° W 17:56:14 10° NW visible
12 Dec ? 05:17:52 10° NE 05:20:59 23° E 05:24:05 10° SSE visible
12 Dec ? 06:51:41 10° N 06:55:07 31° WNW 06:58:31 10° SW visible
12 Dec ? 17:35:06 10° SSW 17:38:39 39° W 17:42:15 10° NNW visible
13 Dec ? 05:04:09 10° NE 05:06:39 17° E 05:09:10 10° SE visible
13 Dec ? 06:37:19 10° N 06:40:59 44° WNW 06:44:38 10° SW visible
13 Dec ? 17:20:41 10° S 17:24:24 57° W 17:28:10 10° NNW visible
14 Dec ? 04:50:52 10° ENE 04:52:19 12° E 04:53:44 10° ESE visible
14 Dec ? 06:23:01 10° N 06:26:50 64° WNW 06:30:37 10° SSW visible
14 Dec ? 17:06:24 10° SSE 17:10:11 85° WSW 17:14:01 10° NNW visible
15 Dec ? 06:08:47 10° NNE 06:12:39 87° ESE 06:16:29 10° SSW visible
15 Dec ? 16:52:14 10° SSE 16:55:59 66° ENE 16:59:48 10° N visible
15 Dec ? 18:29:21 10° WSW 18:30:32 11° W 18:31:43 10° WNW visible
16 Dec ? 05:54:37 10° NNE 05:58:26 60° ESE 06:02:13 10° S visible
16 Dec ? 18:13:47 10° SW 18:16:11 16° W 18:18:35 10° NW visible
17 Dec ? 05:40:32 10° NNE 05:44:11 40° E 05:47:48 10° S visible
17 Dec ? 17:58:50 10° SW 18:01:52 22° W 18:04:54 10° NW visible
18 Dec ? 05:26:33 10° NE 05:29:54 28° E 05:33:15 10° SSE visible
18 Dec ? 07:00:43 10° N 07:03:55 26° WNW 07:07:07 10° WSW visible
18 Dec ? 17:44:09 10° SSW 17:47:33 31° W 17:51:00 10° NNW visible
19 Dec ? 05:12:41 10° NE 05:15:36 20° E 05:18:30 10° SE visible
19 Dec ? 06:46:17 10° N 06:49:49 35° WNW 06:53:19 10° SW visible
19 Dec ? 17:29:38 10° S 17:33:17 45° W 17:36:59 10° NNW visible
